Location: Unspecified
(43.4680°N, 87.1740°E)
Time: 21:08:30
(UTC+00:00)

CREW DRAGON DEMO-1 DEB - Pass Details

Date: 17 April 2021
Orbit: 304 x 308 km, 51.6° (Epoch: 11 May)

Event Time Altitude Azimuth Distance (km) Brightness Sun altitude
Exits shadow 21:26:17 30° 1° (N) 583 4.1 -19.9°
Drops below altitude 10° 21:28:16 10° 44° (NE) 1,199 6.6 -19.6°
Sets 21:30:20 0° 54° (NE) 2,033 8.2 -19.3°
